Terug naar catalogus

EUTE 2-F4

ActiefCommunicatieGEO
NORAD 22028·PAYLOAD·🇪🇺 EU

Gelanceerd Jul 9, 1992 vanaf Guiana Space Centre

Loading…

TLE

VersSource: Space-Track

Epoch: Sep 14, 2026, 20:58 UTC

1 22028U 92041B   26257.87390052  .00000042  00000-0  00000-0 0  9992
2 22028  14.7804   4.7434 0008370 265.1420 107.9517  0.99074907 47646

Volg EUTE 2-F4 in realtime met AllMySat

Download on the App Store